Location: Carrières
(48.9495°N, 2.0407°E)
Time: 12:17:57
(UTC+00:00)

Cosmos 614 Rocket - Pass Details

Date: 28 January 2023
Orbit: 733 x 762 km, 74.1° (Epoch: 23 March)

Event Time Altitude Azimuth Distance (km) Brightness Sun altitude
Rises 17:34:53 0° 200° (SSW) 3,212 7.8 -8.8°
Reaches altitude 10° 17:37:14 10° 200° (SSW) 2,290 7.0 -9.2°
Maximum altitude 17:42:27 88° 115° (ESE) 767 4.0 -10.0°
Drops below altitude 10° 17:47:40 10° 24° (NNE) 2,294 6.1 -10.8°
Enters shadow 17:49:53 - 24° (NNE) 3,159 6.8 -11.2°
